FW6307 Weather Reports


Display with metric or nautical units.
time (UTC)temp
F
wind
direction
speed
MPH
gust
MPH
rain 1hr
in
rain 24hr
in
rain mn
in
humidity
%
barometer
mb
20260507220231 60 333 7.0 9.0 0.00 0.00 0.00 35 1010.0
20260507215732 61 330 7.0 15.0 0.00 0.00 0.00 36 1010.0
20260507215234 61 323 6.0 9.0 0.00 0.00 0.00 35 1010.0
20260507214732 61 335 7.0 13.0 0.00 0.00 0.00 35 1010.0
20260507214232 61 332 5.0 8.0 0.00 0.00 0.00 35 1010.0
20260507213732 60 4 6.0 12.0 0.00 0.00 0.00 34 1010.0
20260507213232 60 287 9.0 12.0 0.00 0.00 0.00 35 1010.0
20260507212731 60 0 6.0 11.0 0.00 0.00 0.00 35 1010.0
20260507212234 60 274 4.0 7.0 0.00 0.00 0.00 35 1010.0
20260507211732 60 314 7.0 9.0 0.00 0.00 0.00 35 1010.0
20260507211232 61 328 8.0 12.0 0.00 0.00 0.00 34 1010.0
20260507210732 61 318 4.0 7.0 0.00 0.00 0.00 35 1010.0
20260507210233 61 325 5.0 9.0 0.00 0.00 0.00 35 1010.0
20260507205732 61 291 7.0 11.0 0.00 0.00 0.00 35 1010.0
20260507205232 61 317 4.0 7.0 0.00 0.00 0.00 34 1009.0
20260507204733 60 311 11.0 16.0 0.00 0.00 0.00 33 1010.0
20260507204233 60 341 8.0 12.0 0.00 0.00 0.00 34 1009.0
20260507203735 60 295 7.0 11.0 0.00 0.00 0.00 35 1010.0
20260507203232 60 301 2.0 2.0 0.00 0.00 0.00 35 1009.0
20260507202731 61 258 7.0 10.0 0.00 0.00 0.00 34 1010.0
20260507202232 61 324 6.0 11.0 0.00 0.00 0.00 34 1010.0
20260507201734 60 330 6.0 8.0 0.00 0.00 0.00 34 1010.0
20260507201232 60 334 6.0 10.0 0.00 0.00 0.00 35 1010.0
20260507200733 60 290 7.0 9.0 0.00 0.00 0.00 34 1010.0
20260507200232 61 323 9.0 11.0 0.00 0.00 0.00 34 1010.0
20260507195733 61 320 8.0 13.0 0.00 0.00 0.00 33 1010.0
20260507195232 61 284 11.0 15.0 0.00 0.00 0.00 34 1010.0
20260507194732 61 257 6.0 9.0 0.00 0.00 0.00 34 1010.0
20260507194231 61 300 9.0 12.0 0.00 0.00 0.00 34 1010.0
20260507193732 61 265 9.0 14.0 0.00 0.00 0.00 34 1010.0
20260507193232 61 269 8.0 12.0 0.00 0.00 0.00 35 1010.0
20260507192732 61 273 8.0 11.0 0.00 0.00 0.00 35 1010.0
20260507192233 61 277 7.0 10.0 0.00 0.00 0.00 34 1010.0
20260507191733 61 262 7.0 11.0 0.00 0.00 0.00 36 1010.0
20260507191231 60 343 10.0 13.0 0.00 0.00 0.00 38 1010.0
20260507190733 60 292 5.0 8.0 0.00 0.00 0.00 36 1010.0
20260507190231 60 271 9.0 13.0 0.00 0.00 0.00 35 1010.0
20260507185731 60 292 7.0 10.0 0.00 0.00 0.00 37 1010.0
20260507185231 61 322 5.0 7.0 0.00 0.00 0.00 40 1010.0
20260507184731 60 284 7.0 9.0 0.00 0.00 0.00 40 1010.0
20260507184235 60 280 8.0 12.0 0.00 0.00 0.00 39 1010.0
20260507183734 60 295 9.0 13.0 0.00 0.00 0.00 39 1010.0
20260507183234 60 256 6.0 10.0 0.00 0.00 0.00 40 1010.0
20260507182731 60 255 3.0 6.0 0.00 0.00 0.00 40 1010.0
20260507182232 60 272 6.0 8.0 0.00 0.00 0.00 41 1010.0
20260507181733 60 286 6.0 8.0 0.00 0.00 0.00 40 1010.0
20260507181232 60 326 4.0 7.0 0.00 0.00 0.00 41 1011.0
20260507180733 60 323 6.0 11.0 0.00 0.00 0.00 42 1011.0
20260507180232 60 280 7.0 12.0 0.00 0.00 0.00 42 1011.0
20260507175735 59 260 7.0 12.0 0.00 0.00 0.00 42 1011.0
20260507175232 59 272 7.0 12.0 0.00 0.00 0.00 41 1011.0
20260507174734 59 258 4.0 9.0 0.00 0.00 0.00 42 1011.0
20260507174234 58 238 6.0 9.0 0.00 0.00 0.00 43 1011.0
20260507173732 58 260 5.0 9.0 0.00 0.00 0.00 43 1011.0
20260507173236 58 271 7.0 10.0 0.00 0.00 0.00 43 1011.0
20260507172731 59 272 8.0 11.0 0.00 0.00 0.00 43 1011.0
20260507172237 60 293 6.0 9.0 0.00 0.00 0.00 42 1011.0
20260507171735 59 226 7.0 11.0 0.00 0.00 0.00 44 1011.0
20260507171231 59 293 3.0 4.0 0.00 0.00 0.00 44 1011.0
20260507170734 59 239 5.0 9.0 0.00 0.00 0.00 43 1011.0
20260507170233 59 276 4.0 11.0 0.00 0.00 0.00 42 1011.0
20260507165734 59 221 4.0 6.0 0.00 0.00 0.00 41 1011.0
20260507165237 58 260 5.0 7.0 0.00 0.00 0.00 43 1011.0
20260507164731 58 316 6.0 11.0 0.00 0.00 0.00 42 1011.0
20260507164234 58 284 6.0 9.0 0.00 0.00 0.00 44 1011.0
20260507163732 58 259 10.0 13.0 0.00 0.00 0.00 42 1011.0
20260507163234 58 266 8.0 11.0 0.00 0.00 0.00 42 1011.0
20260507162733 58 296 6.0 12.0 0.00 0.00 0.00 43 1012.0
20260507162232 58 255 4.0 6.0 0.00 0.00 0.00 43 1012.0
20260507161733 58 242 7.0 11.0 0.00 0.00 0.00 43 1012.0
20260507161237 57 282 6.0 12.0 0.00 0.00 0.00 44 1012.0
20260507160734 57 297 6.0 11.0 0.00 0.00 0.00 44 1012.0
20260507160233 57 273 6.0 9.0 0.00 0.00 0.00 43 1012.0
20260507155732 57 300 6.0 9.0 0.00 0.00 0.00 45 1012.0
20260507155232 57 279 7.0 9.0 0.00 0.00 0.00 45 1012.0
20260507154731 57 241 6.0 9.0 0.00 0.00 0.00 44 1012.0
20260507154234 57 281 2.0 4.0 0.00 0.00 0.00 43 1012.0
20260507153734 56 269 4.0 6.0 0.00 0.00 0.00 45 1012.0
20260507153232 56 289 7.0 9.0 0.00 0.00 0.00 46 1012.0
20260507152731 56 302 4.0 6.0 0.00 0.00 0.00 47 1012.0
20260507152232 56 241 6.0 9.0 0.00 0.00 0.00 47 1012.0
20260507151733 56 299 4.0 6.0 0.00 0.00 0.00 47 1012.0
20260507151232 56 239 4.0 8.0 0.00 0.00 0.00 47 1012.0
20260507150734 55 336 4.0 8.0 0.00 0.00 0.00 48 1012.0
20260507150234 55 300 6.0 9.0 0.00 0.00 0.00 47 1012.0
20260507145732 55 313 7.0 13.0 0.00 0.00 0.00 48 1012.0
20260507145232 55 331 6.0 11.0 0.00 0.00 0.00 47 1012.0
20260507144735 55 307 3.0 5.0 0.00 0.00 0.00 50 1013.0
20260507144232 55 292 3.0 4.0 0.00 0.00 0.00 50 1013.0
20260507143733 55 334 5.0 7.0 0.00 0.00 0.00 52 1013.0
20260507143233 54 293 2.0 3.0 0.00 0.00 0.00 54 1013.0
20260507142734 54 231 4.0 6.0 0.00 0.00 0.00 55 1013.0
20260507142233 54 221 4.0 5.0 0.00 0.00 0.00 54 1013.0
20260507141732 54 271 5.0 7.0 0.00 0.00 0.00 56 1013.0
20260507141233 54 274 6.0 8.0 0.00 0.00 0.00 56 1013.0
20260507140737 53 269 1.0 4.0 0.00 0.00 0.00 57 1013.0
20260507140234 53 255 3.0 4.0 0.00 0.00 0.00 56 1013.0
20260507135733 52 270 4.0 7.0 0.00 0.00 0.00 57 1013.0
20260507135234 53 288 4.0 8.0 0.00 0.00 0.00 56 1013.0
20260507134734 53 248 5.0 10.0 0.00 0.00 0.00 56 1013.0
20260507134232 53 278 4.0 6.0 0.00 0.00 0.00 55 1013.0
20260507133733 52 328 4.0 6.0 0.00 0.00 0.00 56 1013.0
20260507133233 52 210 4.0 6.0 0.00 0.00 0.00 57 1013.0
20260507132732 52 250 4.0 7.0 0.00 0.00 0.00 59 1013.0
20260507132234 52 232 4.0 8.0 0.00 0.00 0.00 61 1013.0
20260507131732 51 280 5.0 8.0 0.00 0.00 0.00 60 1014.0
20260507131231 52 308 2.0 4.0 0.00 0.00 0.00 60 1014.0
20260507130731 52 283 1.0 2.0 0.00 0.00 0.00 61 1014.0
20260507130235 52 340 2.0 4.0 0.00 0.00 0.00 62 1014.0
20260507125735 51 349 2.0 3.0 0.00 0.00 0.00 66 1014.0
20260507125231 52 21 2.0 3.0 0.00 0.00 0.00 65 1014.0
20260507124731 52 0 0.0 0.0 0.00 0.00 0.00 66 1014.0
20260507124232 51 4 0.0 2.0 0.00 0.00 0.00 66 1014.0
20260507123732 50 0 0.0 0.0 0.00 0.00 0.00 68 1014.0
20260507123233 50 2 0.0 1.0 0.00 0.00 0.00 70 1014.0
20260507122734 50 12 0.0 1.0 0.00 0.00 0.00 70 1014.0
20260507122233 50 356 0.0 1.0 0.00 0.00 0.00 70 1014.0
20260507121733 49 323 1.0 2.0 0.00 0.00 0.00 72 1014.0
20260507121232 49 34 0.0 1.0 0.00 0.00 0.00 71 1014.0
20260507120733 48 0 0.0 0.0 0.00 0.00 0.00 72 1014.0
20260507120234 47 0 0.0 0.0 0.00 0.00 0.00 76 1014.0
20260507115733 46 44 1.0 2.0 0.00 0.00 0.00 78 1014.0
20260507115232 46 0 0.0 0.0 0.00 0.00 0.00 81 1014.0
20260507114733 45 20 1.0 2.0 0.00 0.00 0.00 81 1014.0
20260507114231 45 11 0.0 2.0 0.00 0.00 0.00 80 1014.0
20260507113732 44 0 0.0 0.0 0.00 0.00 0.00 85 1014.0
20260507113235 43 357 2.0 2.0 0.00 0.00 0.00 86 1014.0
20260507112733 43 29 1.0 2.0 0.00 0.00 0.00 87 1014.0
20260507112231 42 10 1.0 2.0 0.00 0.00 0.00 87 1014.0
20260507111732 42 11 1.0 2.0 0.00 0.00 0.00 88 1014.0
20260507111233 42 1 1.0 2.0 0.00 0.00 0.00 89 1014.0
20260507110733 41 9 2.0 2.0 0.00 0.00 0.00 90 1014.0
20260507110233 41 346 1.0 2.0 0.00 0.00 0.00 91 1014.0
20260507105731 41 356 0.0 1.0 0.00 0.00 0.00 91 1014.0
20260507105231 41 5 2.0 2.0 0.00 0.00 0.00 92 1014.0
20260507104733 40 0 2.0 2.0 0.00 0.00 0.00 93 1013.0
20260507104231 40 0 2.0 2.0 0.00 0.00 0.00 93 1013.0
20260507103732 40 333 1.0 1.0 0.00 0.00 0.00 93 1013.0
20260507103234 40 24 1.0 2.0 0.00 0.00 0.00 93 1013.0
20260507102731 40 33 2.0 2.0 0.00 0.00 0.00 93 1013.0
20260507102233 40 28 2.0 2.0 0.00 0.00 0.00 93 1013.0
20260507101731 40 28 2.0 2.0 0.00 0.00 0.00 93 1013.0
20260507101233 40 3 0.0 1.0 0.00 0.00 0.00 93 1013.0
20260507100732 40 358 2.0 2.0 0.00 0.00 0.00 92 1013.0
20260507100234 40 19 2.0 2.0 0.00 0.00 0.00 93 1013.0
20260507095732 41 9 0.0 0.0 0.00 0.00 0.00 92 1013.0
20260507095232 41 342 1.0 1.0 0.00 0.00 0.00 92 1013.0
20260507094733 41 6 1.0 2.0 0.00 0.00 0.00 91 1013.0
20260507094232 41 343 0.0 1.0 0.00 0.00 0.00 91 1013.0
20260507093731 41 12 2.0 3.0 0.00 0.00 0.00 91 1013.0
20260507093233 41 1 2.0 2.0 0.00 0.00 0.00 91 1013.0
20260507092733 41 22 0.0 1.0 0.00 0.00 0.00 90 1013.0
20260507092231 42 0 1.0 2.0 0.00 0.00 0.00 90 1013.0
20260507091732 42 1 2.0 2.0 0.00 0.00 0.00 90 1013.0
20260507091231 42 358 1.0 2.0 0.00 0.00 0.00 90 1014.0
20260507090731 42 342 1.0 2.0 0.00 0.00 0.00 89 1014.0
20260507090233 42 351 1.0 2.0 0.00 0.00 0.00 89 1014.0
20260507085732 42 7 2.0 2.0 0.00 0.00 0.00 89 1014.0
20260507085232 42 0 0.0 0.0 0.00 0.00 0.00 88 1014.0
20260507084733 42 0 0.0 0.0 0.00 0.00 0.00 86 1013.0
20260507084233 43 0 0.0 0.0 0.00 0.00 0.00 86 1013.0
20260507083734 43 19 1.0 2.0 0.00 0.00 0.00 85 1013.0
20260507083232 43 18 2.0 3.0 0.00 0.00 0.00 84 1013.0
20260507082735 43 13 2.0 3.0 0.00 0.00 0.00 84 1013.0
20260507082232 43 0 2.0 3.0 0.00 0.00 0.00 85 1013.0
20260507081734 44 17 0.0 1.0 0.00 0.00 0.00 84 1013.0
20260507081231 44 29 1.0 1.0 0.00 0.00 0.00 83 1013.0
20260507080735 44 15 2.0 2.0 0.00 0.00 0.00 83 1013.0
20260507080231 44 0 0.0 0.0 0.00 0.00 0.00 83 1013.0
20260507075732 44 13 0.0 0.0 0.00 0.00 0.00 83 1013.0
20260507075232 44 1 1.0 2.0 0.00 0.00 0.00 82 1014.0
20260507074733 45 0 0.0 0.0 0.00 0.00 0.00 81 1014.0
20260507074231 45 0 0.0 0.0 0.00 0.00 0.00 80 1014.0
20260507073731 45 67 1.0 2.0 0.00 0.00 0.00 80 1014.0
20260507073232 45 20 2.0 3.0 0.00 0.00 0.00 78 1013.0
20260507072733 46 9 3.0 4.0 0.00 0.00 0.00 76 1013.0
20260507072231 46 36 2.0 2.0 0.00 0.00 0.00 76 1014.0
20260507071734 46 14 0.0 1.0 0.00 0.00 0.00 75 1013.0
20260507071235 46 0 0.0 0.0 0.00 0.00 0.00 75 1013.0
20260507070732 46 0 0.0 0.0 0.00 0.00 0.00 73 1013.0
20260507070231 46 0 0.0 0.0 0.00 0.00 0.00 72 1013.0
20260507065731 47 0 0.0 0.0 0.00 0.00 0.00 71 1013.0
20260507065234 47 0 0.0 0.0 0.00 0.00 0.00 71 1013.0
20260507064734 48 275 0.0 1.0 0.00 0.00 0.00 71 1014.0
20260507064234 48 0 0.0 0.0 0.00 0.00 0.00 70 1013.0
20260507063734 48 0 0.0 0.0 0.00 0.00 0.00 70 1013.0
20260507063232 49 7 3.0 3.0 0.00 0.00 0.00 71 1013.0
20260507062734 49 356 2.0 2.0 0.00 0.00 0.00 71 1014.0
20260507062232 49 24 1.0 2.0 0.00 0.00 0.00 70 1013.0
20260507061731 49 69 0.0 0.0 0.00 0.00 0.00 68 1013.0
20260507061233 49 32 1.0 2.0 0.00 0.00 0.00 68 1013.0
20260507060734 49 23 0.0 1.0 0.00 0.00 0.00 67 1013.0
20260507060232 49 58 0.0 0.0 0.00 0.00 0.00 67 1014.0
20260507055732 49 345 3.0 3.0 0.00 0.00 0.00 66 1013.0
20260507055233 49 26 3.0 4.0 0.00 0.00 0.00 65 1014.0
20260507054732 49 337 2.0 3.0 0.00 0.00 0.00 66 1014.0
20260507054232 49 12 2.0 3.0 0.00 0.00 0.00 66 1014.0
20260507053731 50 5 3.0 3.0 0.00 0.00 0.00 67 1014.0
20260507053232 50 18 4.0 4.0 0.00 0.00 0.00 66 1014.0
20260507052734 50 349 4.0 4.0 0.00 0.00 0.00 66 1014.0
20260507052232 50 8 2.0 4.0 0.00 0.00 0.00 66 1014.0
20260507051732 50 357 4.0 5.0 0.00 0.00 0.00 65 1014.0
20260507051231 50 5 3.0 4.0 0.00 0.00 0.00 65 1014.0
20260507050733 50 8 2.0 2.0 0.00 0.00 0.00 65 1014.0
20260507050236 50 4 1.0 2.0 0.00 0.00 0.00 65 1014.0
20260507045733 50 332 2.0 3.0 0.00 0.00 0.00 64 1014.0
20260507045232 50 11 3.0 3.0 0.00 0.00 0.00 66 1014.0
20260507044732 50 350 3.0 3.0 0.00 0.00 0.00 65 1014.0
20260507044232 50 35 2.0 3.0 0.00 0.00 0.00 66 1014.0
20260507043732 51 9 2.0 2.0 0.00 0.00 0.00 66 1014.0
20260507043232 51 345 2.0 2.0 0.00 0.00 0.00 66 1014.0
20260507042732 51 349 2.0 2.0 0.00 0.00 0.00 66 1014.0
20260507042232 51 334 2.0 2.0 0.00 0.00 0.00 66 1014.0
20260507041731 51 346 3.0 4.0 0.00 0.00 0.00 65 1014.0
20260507041232 51 345 3.0 4.0 0.00 0.00 0.00 64 1014.0
20260507040732 51 15 3.0 4.0 0.00 0.00 0.00 64 1014.0
20260507040232 51 3 4.0 5.0 0.00 0.00 0.00 64 1014.0
20260507035733 51 26 2.0 3.0 0.00 0.00 0.45 64 1014.0
20260507035233 51 355 4.0 4.0 0.00 0.00 0.45 64 1014.0
20260507034732 51 9 2.0 3.0 0.00 0.00 0.45 65 1014.0
20260507034231 51 353 2.0 2.0 0.00 0.00 0.45 66 1014.0
20260507033731 51 346 3.0 3.0 0.00 0.00 0.45 65 1014.0
20260507033232 51 343 2.0 4.0 0.00 0.00 0.45 67 1014.0
20260507032731 51 24 2.0 3.0 0.00 0.00 0.45 67 1014.0
20260507032232 51 355 4.0 5.0 0.00 0.00 0.45 66 1014.0
20260507031734 52 15 3.0 3.0 0.00 0.00 0.45 65 1014.0
20260507031233 52 16 2.0 3.0 0.00 0.00 0.45 65 1014.0
20260507030733 52 357 3.0 4.0 0.00 0.00 0.45 66 1013.0
20260507030233 52 0 3.0 4.0 0.00 0.00 0.45 66 1013.0
20260507025732 52 358 4.0 5.0 0.00 0.00 0.45 66 1014.0
20260507025233 52 333 3.0 5.0 0.00 0.00 0.45 66 1013.0
20260507024732 52 1 2.0 3.0 0.00 0.00 0.45 66 1014.0
20260507024231 52 349 2.0 3.0 0.00 0.00 0.45 65 1013.0
20260507023731 52 25 3.0 5.0 0.00 0.00 0.45 62 1013.0
20260507023234 52 15 4.0 6.0 0.00 0.00 0.45 63 1013.0
20260507022733 53 8 5.0 7.0 0.00 0.00 0.45 62 1013.0
20260507022231 53 353 4.0 5.0 0.00 0.00 0.45 62 1013.0
20260507021733 53 9 5.0 7.0 0.00 0.00 0.45 62 1013.0
20260507021231 53 26 4.0 5.0 0.00 0.00 0.45 61 1013.0
20260507020733 53 334 3.0 4.0 0.00 0.00 0.45 61 1013.0
20260507020232 53 353 3.0 5.0 0.00 0.00 0.45 61 1013.0
20260507015731 53 50 4.0 5.0 0.00 0.00 0.45 61 1013.0
20260507015233 53 43 5.0 6.0 0.00 0.00 0.45 60 1013.0
20260507014731 53 15 4.0 5.0 0.00 0.00 0.45 61 1013.0
20260507014233 53 15 4.0 5.0 0.00 0.00 0.45 60 1013.0
20260507013735 53 41 4.0 5.0 0.00 0.00 0.45 60 1013.0
20260507013232 53 13 7.0 9.0 0.00 0.00 0.45 59 1012.0
20260507012732 54 35 4.0 9.0 0.00 0.00 0.45 60 1013.0
20260507012232 54 32 4.0 6.0 0.00 0.00 0.45 60 1013.0
20260507011733 54 18 6.0 7.0 0.00 0.00 0.45 60 1012.0
20260507011231 54 15 6.0 7.0 0.00 0.00 0.45 60 1012.0
20260507010732 54 54 2.0 5.0 0.00 0.00 0.45 59 1012.0
20260507010232 54 7 5.0 7.0 0.00 0.00 0.45 58 1012.0
20260507005733 54 74 2.0 4.0 0.00 0.00 0.45 59 1013.0
20260507005234 54 11 5.0 6.0 0.00 0.00 0.45 59 1013.0
20260507004732 54 32 3.0 5.0 0.00 0.00 0.45 59 1013.0
20260507004231 54 4 4.0 6.0 0.00 0.00 0.45 59 1013.0
20260507003732 54 1 4.0 5.0 0.00 0.00 0.45 59 1013.0
20260507003234 54 20 4.0 6.0 0.00 0.00 0.45 58 1013.0
20260507002732 55 3 3.0 7.0 0.00 0.00 0.45 59 1013.0
20260507002233 55 39 4.0 6.0 0.00 0.00 0.45 58 1013.0
20260507001733 55 358 4.0 7.0 0.00 0.00 0.45 60 1013.0
20260507001232 55 0 6.0 9.0 0.00 0.00 0.45 60 1013.0
20260507000732 55 16 5.0 6.0 0.00 0.00 0.45 60 1013.0
20260507000234 55 11 6.0 7.0 0.00 0.00 0.45 60 1013.0
20260506235733 55 3 7.0 10.0 0.00 0.00 0.45 59 1013.0
20260506235234 55 8 10.0 14.0 0.00 0.00 0.45 59 1013.0
20260506234733 56 7 10.0 14.0 0.00 0.00 0.45 60 1012.0
20260506234233 56 344 3.0 5.0 0.00 0.00 0.45 62 1013.0
20260506233731 56 3 4.0 6.0 0.00 0.00 0.45 61 1012.0
20260506233233 56 355 5.0 7.0 0.00 0.00 0.45 61 1012.0
20260506232732 56 356 5.0 7.0 0.00 0.00 0.45 60 1012.0
20260506232231 56 347 5.0 8.0 0.00 0.00 0.45 60 1012.0
20260506231734 56 349 4.0 7.0 0.00 0.00 0.45 60 1012.0
20260506231231 56 343 4.0 5.0 0.00 0.00 0.45 61 1012.0
20260506230733 56 4 3.0 5.0 0.00 0.00 0.45 61 1012.0
20260506230234 56 337 4.0 6.0 0.00 0.00 0.45 63 1012.0
20260506225733 56 335 3.0 5.0 0.00 0.00 0.45 64 1012.0
20260506225233 56 321 2.0 4.0 0.00 0.00 0.45 64 1012.0
20260506224733 56 296 5.0 6.0 0.00 0.00 0.45 64 1012.0
20260506224233 56 328 2.0 3.0 0.00 0.00 0.45 64 1012.0
20260506223731 56 336 2.0 7.0 0.00 0.00 0.45 64 1012.0
20260506223233 56 324 2.0 3.0 0.00 0.00 0.45 64 1012.0
20260506222732 56 352 3.0 4.0 0.00 0.00 0.45 63 1012.0
20260506222231 56 4 2.0 4.0 0.00 0.00 0.45 63 1012.0
20260506221731 56 5 3.0 5.0 0.00 0.00 0.45 62 1012.0
20260506221232 56 340 4.0 5.0 0.00 0.00 0.45 62 1012.0
20260506220731 56 338 2.0 4.0 0.00 0.00 0.45 62 1012.0